Regional Weather Roundup
Issued by NWS

Home | Current Version | Previous Version | Text Only | Print | Product List | Glossary On
Versions: 1 2 3 4 5 6 7 8 9 10 11 12 13 14 15 16 17 18 19 20 21 22 23 24 25 26 27 28 29 30 31 32 33 34 35 36 37 38 39 40 41 42 43 44 45 46 47 48 49 50
477
ASUS43 KMPX 220501
RWRMN
WEATHER ROUNDUP FOR MINNESOTA
NATIONAL WEATHER SERVICE TWIN CITIES/CHANHASSEN MN
1200 AM CDT SUN OCT 22 2017


NOTE: "FAIR" INDICATES FEW OR NO CLOUDS BELOW 12,000 FEET WITH NO
SIGNIFICANT WEATHER AND/OR OBSTRUCTIONS TO VISIBILITY. N/A MEANS
CURRENT SKY AND/OR WEATHER CONDITIONS ARE NOT AVAILABLE.

MNZ060>063-068>070-220600-
   Twin Cities Metro

CITY           SKY/WX    TMP DP  RH WIND       PRES   REMARKS
TWIN CITIES    CLOUDY    53  46  77 W8        29.85R
ST PAUL        CLOUDY    53  46  77 W8        29.85R
CRYSTAL        CLOUDY    52  43  71 W6        29.83R
BLAINE         PTCLDY    54  48  82 W9        29.83R
LAKEVILLE      CLOUDY    50  45  81 W8        29.86R
EDEN PRAIRIE   CLOUDY    52  45  77 W6        29.85R
SOUTH ST PAUL  CLOUDY    54  45  70 W8        29.84R
LAKE ELMO      MOCLDY    54  48  82 W9        29.84S
$$
MNZ001>005-007-008-013>017-022>024-027-028-220600-
   Northwest Minnesota

CITY           SKY/WX    TMP DP  RH WIND       PRES   REMARKS
BEMIDJI        CLOUDY    48  43  83 SW12G17   29.67F
HALLOCK        CLOUDY    52  43  71 W12       29.60R
ROSEAU         CLOUDY    52  43  71 SW13G20   29.59R
WARROAD        CLOUDY    52  45  76 SW13      29.59R
CROOKSTON      CLOUDY    52  39  62 W9        29.66F
FOSSTON        CLOUDY    46  43  87 SW12      29.68F
DETROIT LAKES  PTCLDY    48  41  76 W9        29.72F
MOORHEAD       CLOUDY    52  39  62 W13G21    29.73S
PARK RAPIDS    PTCLDY    46  42  86 SW8       29.71F
MAHNOMEN       CLOUDY    48  41  76 SW14      29.69F
$$
MNZ006-009>011-018-025>026-220600-
   North Central Minnesota

CITY           SKY/WX    TMP DP  RH WIND       PRES   REMARKS
BAUDETTE       CLOUDY    49  44  83 SW8       29.59S
FLAG ISLAND    CLOUDY    52  45  76 SW9       29.55R
INTL FALLS     PTCLDY    50  46  86 SW7       29.62R
WASKISH        CLOUDY    50  45  81 SW13      29.63F
BIG FORK       PTCLDY    48  45  87 SW7       29.67S
LONGVILLE      CLOUDY    48  45  87 SW7       29.70F
GRAND RAPIDS   PTCLDY    50  45  83 SW7       29.72R
CRANE LAKE     RAIN      52  50  93 SW5       29.66R
ORR            CLOUDY    52  48  87 SW5       29.64R
COOK           CLOUDY    54  50  87 SW6       29.68R
WALKER         CLOUDY    47  43  84 W9G16     29.69F
$$
MNZ012-019>021-037-220600-
   Northeast Minnesota

CITY           SKY/WX    TMP DP  RH WIND       PRES   REMARKS
DULUTH         CLOUDY    53  51  93 W16       29.71R
ELY            CLOUDY    63  59  88 S13G20    29.63S
HIBBING        CLOUDY    51  48  89 W7        29.69R
EVELETH        CLOUDY    53  52  96 SW12      29.70R
DULUTH HARBOR  CLOUDY    54  54 100 SW16      29.72R
TWO HARBORS    LGT RAIN  64  61  88 SW7       29.65S
GRAND MARAIS     N/A     53  53 100 NE5       29.70R
G MARAIS ARPRT LGT RAIN  57  54  88 S10G16    29.72S
$$
MNZ029>031-032-039>041-046>048-054>057-064-220600-
   West Central Minnesota

CITY           SKY/WX    TMP DP  RH WIND       PRES   REMARKS
FERGUS FALLS   PTCLDY    46  39  76 W14       29.76F
WHEATON        CLOUDY    50  39  66 SW10      29.82R
MORRIS         PTCLDY    46  41  81 W9        29.80R
ALEXANDRIA     PTCLDY    47  41  80 W9        29.79S
ELBOW LAKE     FAIR      46  40  78 SW12G18   29.79R
WADENA         CLEAR     46  41  81 W6        29.73S
GLENWOOD       CLEAR     45  41  87 SW8       29.81R
APPLETON       CLEAR     45  39  81 SW9       29.83R
BENSON         CLEAR     45  39  81 W9        29.84R
ORTONVILLE     CLEAR     46  39  76 W7        29.82S
MADISON        CLEAR     48  41  76 W9        29.85R
WILLMAR        FAIR      46  43  87 SW7       29.85R
$$
MNZ033>034-036-042>043-049>051-058-059-220600-
   Central Minnesota

CITY           SKY/WX    TMP DP  RH WIND       PRES   REMARKS
ST CLOUD       CLOUDY    48  44  86 SW8       29.82R
SAUK CENTRE    FAIR      46  42  85 SW7       29.80R
PAYNESVILLE    CLEAR     47  43  87 SW7       29.83R
AITKIN         CLOUDY    45  43  93 SW5       29.74R
PINE RIVER     CLOUDY    45  39  81 CALM      29.76F
BRAINERD       PTCLDY   N/A N/A N/A SW9       29.76S
STAPLES        CLEAR     45  41  87 SW5       29.75R
LONG PRAIRIE   FAIR      43  39  87 S6        29.80R
LITTLE FALLS   CLOUDY    45  37  76 S3        29.79R
LITCHFIELD     PTCLDY    46  45  93 SW3       29.85R
BUFFALO        PTCLDY    49  43  78 SW5       29.85R
MAPLE LAKE     MOCLDY    49  45  84 SW5       29.85R
HUTCHINSON     CLOUDY    47  44  87 SW5       29.87R
$$
MNZ037-044-045-052-053-220600-
   East Central Minnesota

CITY           SKY/WX    TMP DP  RH WIND       PRES   REMARKS
PRINCETON      MOCLDY    50  45  81 CALM      29.82R
MORA           PTCLDY    48  43  81 W7        29.82R
CAMBRIDGE      MOCLDY    52  45  76 SW5       29.81R
RUSH CITY      CLOUDY    51  45  80 W10       29.81R
MOOSE LAKE     CLOUDY    52  46  82 W9        29.74R
HINCKLEY       FAIR      52  48  87 W10       29.79R
CLOQUET        CLOUDY    54  48  82 SW8       29.73R
MCGREGOR       PTCLDY    50  46  87 SW6       29.75R
$$
MNZ071>073-080-081-089-090-097-098-220600-
   Southwest Minnesota

CITY           SKY/WX    TMP DP  RH WIND       PRES   REMARKS
MONTEVIDEO     CLEAR     46  39  76 W6        29.85R
GRANITE FALLS  CLEAR     47  41  80 SW9       29.88R
CANBY          CLEAR     49  40  68 W15       29.88R
MARSHALL       CLEAR     47  39  74 W10       29.89R
REDWOOD FALLS  CLEAR     47  40  76 SW8       29.88R
OLIVIA         CLEAR     45  41  87 SW7       29.86R
PIPESTONE      CLEAR     43  37  81 W7        29.92R
WORTHINGTON    PTCLDY    43  39  86 SW8       29.94R
JACKSON        PTCLDY    45  37  76 W8        29.94R
TRACY          CLEAR     46  41  81 SW7       29.90R
SLAYTON        CLEAR     44  39  81 W10       29.92R
$$
MNZ065>067-074>077-082>085-091>093-220600-
   South Central Minnesota

CITY           SKY/WX    TMP DP  RH WIND       PRES   REMARKS
MANKATO        CLOUDY    50  43  77 W9        29.89
NEW ULM        PTCLDY    46  41  81 CALM      29.89R
ST JAMES       PTCLDY    46  43  87 SW6       29.92R
FAIRMONT       CLOUDY    49  42  77 W8        29.92R
GLENCOE        PTCLDY    49  45  84 SW5       29.86R
FARIBAULT      CLOUDY    52  45  76 W7        29.88R
OWATONNA       CLOUDY    52  45  76 W9        29.89R
WASECA         CLOUDY    50  43  76 W6        29.90R
$$
MNZ078>079-086>088-094>096-220600-
   Southeast Minnesota

CITY           SKY/WX    TMP DP  RH WIND       PRES   REMARKS
ROCHESTER      CLOUDY    53  49  86 W13G22    29.87R
RED WING       CLOUDY    55  48  76 W10       29.83R
STANTON        CLOUDY    53  46  76 W8        29.86R
DODGE CENTER   CLOUDY    52  45  76 W13G18    29.87R
WINONA         RAIN      55  54  94 NW13      29.85R
AUSTIN         CLOUDY    52  45  76 W10G16    29.89R
PRESTON        RAIN      53  50  89 NW12      29.87R
$$
ABBREVIATIONS USED IN REMARKS
   TC - TEMPERATURES IN CELSIUS
  WCI - WIND CHILL INDEX
   HX - HEAT INDEX
  VSB - VISIBILITY
$$




USA.gov is the U.S. government's official web portal to all federal, state and local government web resources and services.